This is the latest recevied weather packets stored in our database for station/object EA1IOK-1. If no packets are shown the sender has not sent any weather packets the latest 10 day(s).
| Time | Temp. | Humidity | Pressure | Rain* | Wind** | Luminosity | Snow |
|---|---|---|---|---|---|---|---|
| 1778196585 | 11.11° C | 100% | 1008.8 hPa | - | - | - | - |
| 1778196550 | 11.11° C | 100% | 1008.8 hPa | - | - | - | - |
| 1778195683 | 11.67° C | 100% | 1008.9 hPa | - | - | - | - |
| 1778195649 | 11.67° C | 100% | 1008.9 hPa | - | - | - | - |
| 1778194748 | 11.11° C | 100% | 1009 hPa | - | - | - | - |
| 1778193848 | 11.11° C | 100% | 1009 hPa | - | - | - | - |
| 1778192947 | 11.11° C | 100% | 1008.9 hPa | - | - | - | - |
| 1778192047 | 11.67° C | 100% | 1008.9 hPa | - | - | - | - |
| 1778191147 | 11.67° C | 100% | 1008.8 hPa | - | - | - | - |
| 1778190246 | 11.67° C | 100% | 1008.6 hPa | - | - | - | - |
| 1778189345 | 12.22° C | 100% | 1008.7 hPa | - | - | - | - |
| 1778188445 | 12.78° C | 100% | 1009.2 hPa | - | - | - | - |
| 1778187545 | 12.22° C | 100% | 1008.7 hPa | - | - | - | - |
| 1778186643 | 12.78° C | 100% | 1008.6 hPa | - | - | - | - |
| 1778185743 | 12.78° C | 100% | 1008.4 hPa | - | - | - | - |
| 1778184842 | 12.22° C | 100% | 1008.3 hPa | - | - | - | - |
| 1778183942 | 12.78° C | 100% | 1007.9 hPa | - | - | - | - |
| 1778183041 | 12.78° C | 100% | 1007.6 hPa | - | - | - | - |
| 1778182141 | 13.33° C | 100% | 1007.6 hPa | - | - | - | - |
| 1778181271 | 13.89° C | 100% | 1007.6 hPa | - | - | - | - |
| 1778181240 | 13.89° C | 100% | 1007.6 hPa | - | - | - | - |
| 1778180339 | 15° C | 100% | 1007.6 hPa | - | - | - | - |
| 1778179438 | 15.56° C | 100% | 1007.5 hPa | - | - | - | - |
| 1778178537 | 18.33° C | 84% | 1007.2 hPa | - | - | - | - |
| 1778177636 | 21.11° C | 64% | 1007.1 hPa | - | - | - | - |
* Rain since midnight (hover to see other rain measurements)
** Current wind speed in m/s (hover to see current wind gust speed)